Stations météo

réclame
Mon MeteoGroup
Salsburgh, Grande-Bretagne (99024): Température de l'air & dewpoint: 15.01.2019 16:00:00 - 21.01.2019 16:00:00 (GMT)Salsburgh, Grande-Bretagne (99024): Vitesse du vent & gusts: 15.01.2019 16:00:00 - 21.01.2019 16:00:00 (GMT)Salsburgh, Grande-Bretagne (99024): Direction du vent: 15.01.2019 16:00:00 - 21.01.2019 16:00:00 (GMT)Salsburgh, Grande-Bretagne (99024): Quantités de précipitations: 15.01.2019 16:00:00 - 21.01.2019 16:00:00 (GMT)
Date & Time tt [°C] td [°C] ff [km/h] ff [knt] fx [km/h] fx [knt] dd rr [mm]
21.01.2019 16:00:00 2,1 0,3 26 14 - - S -
21.01.2019 15:00:00 1,9 0,3 28 15 - - S 0,0
21.01.2019 14:00:00 1,8 0,0 28 15 - - S 0,0
21.01.2019 13:00:00 1,4 0,4 26 14 - - S 0,0
21.01.2019 12:00:00 0,7 0,0 31 17 - - S 0,0
21.01.2019 11:00:00 1,0 -0,2 28 15 - - S 0,0
21.01.2019 10:00:00 0,8 -0,3 24 13 - - S 0,0
21.01.2019 09:00:00 0,5 -0,5 26 14 - - S 0,0
21.01.2019 08:00:00 0,2 -1,0 24 13 - - S 0,0
21.01.2019 07:00:00 -0,6 -1,7 15 8 - - S 0,0
21.01.2019 06:00:00 -1,2 -2,2 15 8 - - S 0,0
21.01.2019 05:00:00 -0,9 -2,1 15 8 - - S 0,0
21.01.2019 04:00:00 -1,2 -2,4 13 7 - - SSE 0,0
21.01.2019 03:00:00 -1,0 -2,0 13 7 - - S 0,0
21.01.2019 02:00:00 -1,8 -2,5 13 7 - - SSE 0,0
21.01.2019 01:00:00 -0,4 -1,2 5 3 - - S 0,0
21.01.2019 00:00:00 0,2 -1,0 8 4 - - W 0,0
20.01.2019 23:00:00 -1,1 -2,2 8 4 - - S 0,0
20.01.2019 22:00:00 -0,6 -1,6 8 4 - - S 0,0
20.01.2019 21:00:00 -0,2 -0,9 8 4 - - S 0,0
20.01.2019 20:00:00 0,5 -0,3 11 6 - - W 0,0
20.01.2019 19:00:00 0,5 -1,1 8 4 - - WSW 0,0
20.01.2019 18:00:00 0,8 -0,5 11 6 - - NW 0,0
20.01.2019 17:00:00 2,0 2,0 9 5 - - W 0,0
20.01.2019 16:00:00 2,0 2,0 9 5 - - W 0,0
20.01.2019 15:00:00 2,5 2,5 13 7 - - W 0,0
20.01.2019 14:00:00 2,2 2,2 13 7 - - W 0,0
20.01.2019 13:00:00 1,7 1,7 15 8 - - W 0,0
20.01.2019 12:00:00 1,2 1,2 13 7 - - SW 0,0
20.01.2019 11:00:00 0,6 0,6 11 6 - - SSW 0,0
20.01.2019 10:00:00 0,3 0,3 11 6 - - SW 0,0
20.01.2019 09:00:00 0,1 0,1 15 8 - - SW 0,0
20.01.2019 08:00:00 0,1 0,1 13 7 - - SW 0,0
20.01.2019 07:00:00 -0,1 -0,1 9 5 - - WSW 0,0
20.01.2019 06:00:00 0,0 0,0 9 5 - - WSW 0,0
20.01.2019 05:00:00 -0,1 -0,1 5 3 - - SW 0,0
20.01.2019 04:00:00 -0,1 -0,2 4 2 - - SW 0,0
20.01.2019 03:00:00 0,0 -0,1 2 1 - - S 0,0
20.01.2019 02:00:00 -0,1 -0,2 5 3 - - S 0,0
20.01.2019 01:00:00 0,0 -0,2 4 2 - - SSE 0,0
20.01.2019 00:00:00 0,1 -0,2 4 2 - - SE 0,0
19.01.2019 23:00:00 0,4 0,1 2 1 - - ENE 0,0
19.01.2019 22:00:00 0,2 0,1 4 2 - - ESE 0,0
19.01.2019 21:00:00 0,3 0,1 4 2 - - SE 0,0
19.01.2019 20:00:00 0,4 0,0 5 3 - - SE 0,0
19.01.2019 19:00:00 0,7 0,1 4 2 - - ENE 0,0
19.01.2019 18:00:00 0,8 0,2 4 2 - - ENE 0,0
19.01.2019 17:00:00 0,7 0,1 8 4 - - ENE 0,0
19.01.2019 16:00:00 0,7 0,1 9 5 - - NE 0,0
19.01.2019 15:00:00 0,8 0,4 8 4 - - ENE 0,0
19.01.2019 14:00:00 0,8 0,6 9 5 - - E 0,0
19.01.2019 13:00:00 0,8 0,8 4 2 - - ESE 0,0
19.01.2019 12:00:00 0,5 0,5 8 4 - - E 0,2
19.01.2019 11:00:00 0,3 0,3 9 5 - - ENE 0,0
19.01.2019 10:00:00 -0,2 -0,2 9 5 - - ENE 0,0
19.01.2019 09:00:00 -0,7 -0,7 16 9 - - ENE 0,0
19.01.2019 08:00:00 -0,7 -0,7 16 9 - - E 0,0
19.01.2019 07:00:00 -0,6 -0,7 16 9 - - E 0,0
19.01.2019 06:00:00 -0,6 -0,8 11 6 - - ENE 0,0
19.01.2019 05:00:00 0,0 -0,4 16 9 - - E 0,0
19.01.2019 04:00:00 0,4 0,0 15 8 - - E 0,2
19.01.2019 03:00:00 0,5 0,2 18 10 - - E 0,0
19.01.2019 02:00:00 0,1 -0,1 13 7 - - ENE 0,0
19.01.2019 01:00:00 -0,1 -0,3 15 8 - - ENE 0,0
19.01.2019 00:00:00 0,1 -0,2 15 8 - - E 0,0
18.01.2019 23:00:00 0,2 0,0 13 7 - - ENE 0,0
18.01.2019 22:00:00 0,1 0,0 16 9 - - E 0,0
18.01.2019 21:00:00 0,2 -0,1 13 7 - - ENE 0,0
18.01.2019 20:00:00 0,2 -0,9 13 7 - - ENE 0,0
18.01.2019 19:00:00 0,5 -1,8 13 7 - - ENE 0,0
18.01.2019 18:00:00 0,5 -2,3 15 8 - - ENE 0,0
18.01.2019 17:00:00 0,4 -3,2 16 9 - - E 0,0
18.01.2019 16:00:00 0,8 -3,4 13 7 - - ENE 0,0
18.01.2019 15:00:00 0,9 -3,2 13 7 - - E 0,0
18.01.2019 14:00:00 1,1 -3,4 11 6 - - ENE 0,0
18.01.2019 13:00:00 2,0 -4,4 15 8 - - ESE 0,0
18.01.2019 12:00:00 0,2 -4,6 16 9 - - E 0,0
18.01.2019 11:00:00 -0,3 -5,4 16 9 - - E 0,0
18.01.2019 10:00:00 -1,1 -5,5 15 8 - - E 0,0
18.01.2019 09:00:00 -1,5 -5,6 22 12 - - SE 0,0
18.01.2019 08:00:00 -1,0 -4,8 21 11 - - SE 0,0
18.01.2019 07:00:00 -0,8 -4,6 26 14 - - SSE 0,0
18.01.2019 06:00:00 -0,8 -4,5 28 15 - - SE 0,0
18.01.2019 05:00:00 -1,5 -4,2 24 13 - - SSE 0,0
18.01.2019 04:00:00 -2,2 -4,5 5 3 - - S 0,0
18.01.2019 03:00:00 -1,0 -4,3 22 12 - - SE 0,0
18.01.2019 02:00:00 -0,8 -4,5 21 11 - - SE 0,0
18.01.2019 01:00:00 -1,0 -4,4 21 11 - - SE 0,0
18.01.2019 00:00:00 -0,7 -4,4 13 7 - - SE 0,0
17.01.2019 23:00:00 -0,7 -3,8 9 5 - - SE 0,0
17.01.2019 22:00:00 -1,2 -3,8 13 7 - - SSE 0,0
17.01.2019 21:00:00 -0,7 -3,7 5 3 - - S 0,0
17.01.2019 20:00:00 -0,8 -3,6 5 3 - - S 0,0
17.01.2019 19:00:00 -1,2 -3,6 8 4 - - S 0,0
17.01.2019 18:00:00 -0,1 -3,4 4 2 - - WSW 0,0
17.01.2019 17:00:00 -0,1 -3,5 9 5 - - WNW 0,0
17.01.2019 16:00:00 0,4 -3,3 8 4 - - W 0,0
17.01.2019 15:00:00 2,1 -3,5 15 8 - - WNW 0,0
17.01.2019 14:00:00 2,4 -3,2 13 7 - - W 0,0
17.01.2019 13:00:00 2,6 -3,2 9 5 - - W 0,0
17.01.2019 12:00:00 2,0 -3,2 18 10 - - NNW 0,0
17.01.2019 11:00:00 0,8 -3,6 18 10 - - NW 0,0
17.01.2019 10:00:00 -0,9 -3,9 16 9 - - WNW 0,0
17.01.2019 09:00:00 -1,9 -4,0 8 4 - - W 0,0
17.01.2019 08:00:00 -2,4 -4,7 9 5 - - WSW 0,0
17.01.2019 07:00:00 -2,5 -4,6 11 6 - - W 0,0
17.01.2019 06:00:00 -1,8 -5,2 26 14 - - WNW 0,0
17.01.2019 05:00:00 -2,4 -6,1 18 10 - - WNW 0,0
17.01.2019 04:00:00 -1,6 -5,9 21 11 - - WNW 0,0
17.01.2019 03:00:00 -1,8 -5,5 22 12 - - NNW 0,0
17.01.2019 02:00:00 -2,4 -5,8 16 9 - - NNW 0,0
17.01.2019 01:00:00 -1,5 -5,2 15 8 - - NNW 0,0
17.01.2019 00:00:00 0,2 -3,0 18 10 - - N 0,0
16.01.2019 23:00:00 0,8 0,1 8 4 - - N 0,0
16.01.2019 22:00:00 1,0 0,4 9 5 - - W 0,0
16.01.2019 21:00:00 0,9 0,1 15 8 - - W 0,0
16.01.2019 20:00:00 0,8 0,3 16 9 - - WSW 0,0
16.01.2019 19:00:00 0,8 0,4 22 12 - - WSW 0,0
16.01.2019 18:00:00 1,3 0,6 24 13 - - WSW 0,0
16.01.2019 17:00:00 1,5 0,4 26 14 - - WSW 0,0
16.01.2019 16:00:00 2,0 1,1 26 14 48 26 SW 0,2
16.01.2019 15:00:00 3,1 1,9 26 14 - - WSW 0,0
16.01.2019 14:00:00 3,5 1,8 29 16 - - WSW 0,0
16.01.2019 13:00:00 2,8 2,4 28 15 59 32 WSW 0,8
16.01.2019 12:00:00 4,5 2,5 29 16 - - WSW 0,0
16.01.2019 11:00:00 2,4 2,0 24 13 50 27 WSW 0,2
16.01.2019 10:00:00 3,2 2,1 31 17 - - WSW 0,0
16.01.2019 09:00:00 3,5 2,4 24 13 - - W 0,0
16.01.2019 08:00:00 3,9 2,5 35 19 54 29 W 0,0
16.01.2019 07:00:00 4,8 4,4 29 16 - - WSW 0,0
16.01.2019 06:00:00 4,5 4,4 24 13 54 29 WSW 1,2
16.01.2019 05:00:00 5,1 5,1 34 18 48 26 WSW 1,4
16.01.2019 04:00:00 6,3 6,0 39 21 61 33 SW 0,2
16.01.2019 03:00:00 6,2 5,6 42 23 68 37 SSW 0,2
16.01.2019 02:00:00 6,6 5,4 46 25 65 35 SSW 0,0
16.01.2019 01:00:00 6,5 5,3 48 26 65 35 SSW 0,0
16.01.2019 00:00:00 6,7 5,4 44 24 61 33 SW 0,0
15.01.2019 23:00:00 6,9 5,6 39 21 57 31 SW 0,0
15.01.2019 22:00:00 7,0 5,8 39 21 59 32 SSW 0,0
15.01.2019 21:00:00 7,0 6,1 39 21 61 33 SSW 0,0
15.01.2019 20:00:00 6,8 6,2 42 23 55 30 SW 0,0
15.01.2019 19:00:00 6,6 6,3 35 19 50 27 SW 0,0
15.01.2019 18:00:00 6,7 5,8 41 22 59 32 SSW 0,0
15.01.2019 17:00:00 6,4 5,8 41 22 54 29 SSW 0,0
15.01.2019 16:00:00 6,8 5,3 39 21 55 30 SW 0,0

tt = Température de l'air
td = dewpoint
ff = Vitesse du vent
fx = gusts
dd = Direction du vent
rr = Quantités de précipitations

stations d'obs. à proximité